CYGNUS OA-8

Last updated on Tue Dec 19 2017 00:15:05 GMT+0000 (Greenwich Mean Time)

1 43006U 17071A 17351.78936505 .00011394 00000-0 13588-3 0 9995 2 43006 51.6350 202.8079 0014913 98.0333 262.8611 15.61481175 5489
UTC large
Height (km)
Speed (km/s)
/
Latitude / Longitude
Inclination (degrees)
Orbital Period (minutes)
Azimuth
Elevation
Range (km)
Doppler Factor

Next 0 passes for location: London (51.5072 / 0.1276)

Sorry there are no passes over London.